GW2785 Weather Reports


time (UTC)temp
C
wind
direction
speed
KPH
gust
KPH
rain 1hr
cm
rain 24hr
cm
rain mn
cm
humidity
%
barometer
mb
20260505010038 20 162 0.0 0.0 0.00 0.00 0.00 62 1001.6
20260505005534 20 163 0.0 1.6 0.00 0.00 0.00 61 1001.5
20260505005032 20 162 1.6 1.6 0.00 0.00 0.00 59 1001.6
20260505004529 21 160 0.0 0.0 0.00 0.00 0.00 59 1001.6
20260505004026 21 167 0.0 0.0 0.00 0.00 0.00 58 1001.6
20260505003523 21 164 0.0 0.0 0.00 0.00 0.00 58 1001.5
20260505003020 21 164 0.0 0.0 0.00 0.00 0.00 58 1001.7
20260505002520 22 161 0.0 0.0 0.00 0.00 0.00 57 1001.8
20260505002015 22 158 0.0 0.0 0.00 0.00 0.00 55 1001.8
20260505001511 22 145 4.8 6.4 0.00 0.00 0.00 55 1001.8
20260505001009 22 172 1.6 1.6 0.00 0.00 0.00 55 1001.9
20260505000506 22 158 0.0 0.0 0.00 0.00 0.00 53 1002.0
20260505000003 23 174 3.2 11.3 0.00 0.00 0.00 51 1001.8
20260504235500 22 159 0.0 0.0 0.00 0.00 0.00 54 1002.1
20260504234956 23 159 6.4 9.7 0.00 0.00 0.00 52 1002.3
20260504234454 22 97 4.8 9.7 0.00 0.00 0.00 52 1002.2
20260504233950 23 162 0.0 1.6 0.00 0.00 0.00 52 1002.0
20260504233446 23 129 14.5 16.1 0.00 0.00 0.00 49 1002.1
20260504232943 24 153 6.4 6.4 0.00 0.00 0.00 50 1002.1
20260504232440 24 144 3.2 3.2 0.00 0.00 0.00 52 1002.0
20260504231937 23 154 3.2 4.8 0.00 0.00 0.00 50 1002.1
20260504231433 23 153 3.2 4.8 0.00 0.00 0.00 57 1002.0
20260504230930 24 155 1.6 1.6 0.00 0.00 0.00 59 1002.0
20260504230426 25 160 0.0 0.0 0.00 0.00 0.00 54 1002.3
20260504225926 23 161 0.0 0.0 0.00 0.00 0.00 58 1002.5
20260504225422 22 162 0.0 0.0 0.00 0.00 0.00 59 1002.4
20260504224920 22 160 0.0 0.0 0.00 0.00 0.00 59 1002.3
20260504224416 22 161 0.0 0.0 0.00 0.00 0.00 58 1002.5
20260504223913 23 160 0.0 0.0 0.00 0.00 0.00 59 1002.6
20260504223408 23 137 0.0 0.0 0.00 0.00 0.00 54 1002.7
20260504222905 25 160 1.6 3.2 0.00 0.00 0.00 52 1002.6
20260504222402 25 164 3.2 4.8 0.00 0.00 0.00 52 1002.4
20260504221900 23 161 0.0 0.0 0.00 0.00 0.00 59 1002.8
20260504221356 23 163 0.0 0.0 0.00 0.00 0.00 56 1002.7
20260504220854 23 157 3.2 3.2 0.00 0.00 0.00 58 1002.8
20260504220350 23 157 0.0 0.0 0.00 0.00 0.00 59 1002.7
20260504215847 23 158 0.0 0.0 0.00 0.00 0.00 59 1002.6
20260504215344 23 161 0.0 0.0 0.00 0.00 0.00 62 1002.9
20260504214840 22 157 1.6 1.6 0.00 0.00 0.00 57 1003.0
20260504214337 22 155 1.6 1.6 0.00 0.00 0.00 60 1003.2
20260504213834 22 159 0.0 0.0 0.00 0.00 0.00 59 1003.3
20260504213329 22 157 3.2 4.8 0.00 0.00 0.00 57 1003.2
20260504212827 23 146 3.2 6.4 0.00 0.00 0.00 59 1003.3
20260504212323 23 130 4.8 6.4 0.00 0.00 0.00 57 1003.3
20260504211821 23 137 4.8 9.7 0.00 0.00 0.00 57 1003.4
20260504211317 23 97 8.0 9.7 0.00 0.00 0.00 61 1003.5
20260504210815 22 153 1.6 1.6 0.00 0.00 0.00 56 1003.4
20260504210311 22 150 8.0 9.7 0.00 0.00 0.00 57 1003.6
20260504205809 23 106 3.2 6.4 0.00 0.00 0.00 59 1003.8
20260504205306 22 141 6.4 6.4 0.00 0.00 0.00 56 1003.8
20260504204804 22 150 6.4 9.7 0.00 0.00 0.00 58 1003.5
20260504204302 22 128 3.2 9.7 0.00 0.00 0.00 60 1003.8
20260504203802 22 155 4.8 4.8 0.00 0.00 0.00 57 1004.1
20260504203258 22 157 3.2 3.2 0.00 0.00 0.00 60 1004.2
20260504202758 22 150 8.0 12.9 0.00 0.00 0.00 57 1004.3
20260504202256 23 132 1.6 1.6 0.00 0.00 0.00 58 1003.8
20260504201753 23 128 14.5 22.5 0.00 0.00 0.00 58 1004.0
20260504201250 22 161 3.2 3.2 0.00 0.00 0.00 59 1003.9
20260504200748 22 167 1.6 3.2 0.00 0.00 0.00 63 1003.8
20260504200243 22 134 1.6 3.2 0.00 0.00 0.00 64 1004.0
20260504195740 21 96 8.0 11.3 0.00 0.00 0.00 62 1004.1
20260504195236 21 166 1.6 1.6 0.00 0.00 0.00 68 1004.3
20260504194734 21 154 1.6 1.6 0.00 0.00 0.00 72 1004.4
20260504194229 20 150 0.0 1.6 0.00 0.00 0.00 75 1004.6
20260504193726 19 102 3.2 4.8 0.00 0.00 0.00 71 1004.6
20260504193223 18 158 0.0 0.0 0.00 0.00 0.00 79 1004.7
20260504192722 18 176 0.0 1.6 0.00 0.00 0.00 75 1004.6
20260504192220 18 152 1.6 1.6 0.00 0.00 0.00 75 1005.3
20260504191718 18 158 0.0 0.0 0.00 0.00 0.00 81 1005.4
20260504191215 18 159 0.0 0.0 0.00 0.00 0.00 76 1004.9
20260504190710 18 171 3.2 3.2 0.00 0.00 0.00 72 1005.5
20260504190206 19 147 3.2 4.8 0.00 0.00 0.00 69 1005.7
20260504185703 20 170 6.4 9.7 0.00 0.00 0.00 66 1006.0
20260504185159 20 124 3.2 3.2 0.00 0.00 0.00 66 1005.6
20260504184656 20 147 3.2 3.2 0.00 0.00 0.00 70 1005.6
20260504184151 20 137 6.4 6.4 0.00 0.00 0.00 66 1005.2
20260504183648 20 127 3.2 4.8 0.00 0.00 0.00 66 1005.2
20260504183145 20 129 8.0 11.3 0.00 0.00 0.00 64 1005.4
20260504182643 20 133 6.4 9.7 0.00 0.00 0.00 63 1004.8
20260504182140 20 154 1.6 1.6 0.00 0.00 0.00 65 1004.9
20260504181638 21 129 4.8 6.4 0.00 0.00 0.00 62 1004.7
20260504181135 21 88 6.4 11.3 0.00 0.00 0.00 63 1004.8
20260504180634 21 75 6.4 9.7 0.00 0.00 0.00 62 1004.6
20260504180132 22 159 3.2 3.2 0.00 0.00 0.00 62 1004.5
20260504175629 21 146 4.8 6.4 0.00 0.00 0.00 69 1004.4
20260504175126 21 160 0.0 0.0 0.00 0.00 0.00 66 1004.5
20260504174624 21 167 1.6 1.6 0.00 0.00 0.00 63 1004.2
20260504174120 21 157 3.2 3.2 0.00 0.00 0.00 65 1004.5
20260504173618 21 128 4.8 4.8 0.00 0.00 0.00 63 1004.8
20260504173115 21 159 1.6 1.6 0.00 0.00 0.00 66 1004.8
20260504172611 21 164 0.0 0.0 0.00 0.00 0.00 67 1004.6
20260504172108 21 163 1.6 1.6 0.00 0.00 0.00 66 1004.6
20260504171604 20 156 1.6 1.6 0.00 0.00 0.00 65 1004.6
20260504171102 20 164 1.6 1.6 0.00 0.00 0.00 68 1004.8
20260504170557 20 140 1.6 3.2 0.00 0.00 0.00 70 1004.8
20260504150941 17 133 1.6 3.2 0.00 0.00 0.00 70 1005.6
20260504150438 17 159 0.0 1.6 0.00 0.00 0.00 69 1005.5
20260504140904 17 162 1.6 1.6 0.00 0.00 0.00 66 1006.2
20260504140400 17 150 3.2 3.2 0.00 0.00 0.00 74 1006.1
20260504130325 13 159 1.6 1.6 0.00 0.00 0.00 76 1006.2
20260504120248 11 161 0.0 0.0 0.00 0.00 0.00 82 1006.3
20260504110716 8 160 0.0 0.0 0.00 0.00 0.00 84 1006.3
20260504110212 8 164 0.0 0.0 0.00 0.00 0.00 84 1006.2
20260504100136 6 160 0.0 0.0 0.00 0.00 0.00 88 1006.6
20260504081529 9 158 0.0 0.0 0.00 0.00 0.00 76 1007.2
20260504081025 9 166 1.6 1.6 0.00 0.00 0.00 77 1007.2
20260504080522 8 178 0.0 0.0 0.00 0.00 0.00 78 1007.2
20260504050334 10 167 0.0 0.0 0.00 0.00 0.00 73 1008.8
20260504045831 9 165 0.0 0.0 0.00 0.00 0.00 73 1008.8
20260504045326 8 162 0.0 0.0 0.00 0.00 0.00 76 1008.9
20260504044823 8 160 0.0 0.0 0.00 0.00 0.00 74 1009.1
20260504044321 9 160 0.0 0.0 0.00 0.00 0.00 75 1008.9
20260504043818 9 160 0.0 0.0 0.00 0.00 0.00 74 1009.0
20260504043315 9 166 0.0 0.0 0.00 0.00 0.00 73 1009.1
20260504042812 10 160 0.0 0.0 0.00 0.00 0.00 73 1009.3
20260504042308 10 158 0.0 0.0 0.00 0.00 0.00 69 1009.2
20260504041805 10 160 0.0 0.0 0.00 0.00 0.00 68 1009.1
20260504041301 11 160 0.0 0.0 0.00 0.00 0.00 68 1009.1
20260504040757 11 167 0.0 0.0 0.00 0.00 0.00 68 1009.2
20260504040255 11 164 0.0 0.0 0.00 0.00 0.00 68 1009.3
20260504035750 11 159 0.0 0.0 0.00 0.00 0.00 67 1009.4
20260504035248 11 160 0.0 0.0 0.00 0.00 0.00 66 1009.5
20260504034745 11 161 0.0 0.0 0.00 0.00 0.00 66 1009.4
20260504034242 11 160 0.0 0.0 0.00 0.00 0.00 65 1009.5
20260504033740 11 163 0.0 0.0 0.00 0.00 0.00 64 1009.6
20260504033237 11 160 0.0 0.0 0.00 0.00 0.00 66 1009.5
20260504032734 12 163 0.0 0.0 0.00 0.00 0.00 64 1009.5
20260504032231 12 162 0.0 0.0 0.00 0.00 0.00 64 1009.5
20260504031728 12 162 0.0 0.0 0.00 0.00 0.00 64 1009.5
20260504031226 12 163 0.0 0.0 0.00 0.00 0.00 63 1009.5
20260504030721 12 164 0.0 0.0 0.00 0.00 0.00 65 1009.6
20260504030219 12 169 0.0 0.0 0.00 0.00 0.00 63 1009.8
20260504025715 12 167 0.0 1.6 0.00 0.00 0.00 62 1009.8
20260504025212 12 162 0.0 0.0 0.00 0.00 0.00 63 1009.7
20260504024709 12 161 0.0 0.0 0.00 0.00 0.00 63 1009.9
20260504024205 12 163 0.0 0.0 0.00 0.00 0.00 62 1009.7
20260504023702 12 161 0.0 0.0 0.00 0.00 0.00 62 1009.8
20260504023158 12 161 0.0 0.0 0.00 0.00 0.00 61 1009.9
20260504022654 12 161 0.0 0.0 0.00 0.00 0.00 61 1009.9
20260504022150 12 161 0.0 0.0 0.00 0.00 0.00 61 1009.8
20260504021649 12 161 0.0 0.0 0.00 0.00 0.00 59 1009.8
20260504021145 12 160 0.0 0.0 0.00 0.00 0.00 59 1009.8
20260504020642 13 162 0.0 0.0 0.00 0.00 0.00 58 1010.0
20260504020138 12 172 0.0 0.0 0.00 0.00 0.00 57 1009.9
20260504015635 12 159 0.0 0.0 0.00 0.00 0.00 58 1009.8
20260504015131 12 161 0.0 0.0 0.00 0.00 0.00 58 1009.8
20260504014627 12 161 0.0 0.0 0.00 0.00 0.00 57 1009.7
20260504014124 12 165 0.0 0.0 0.00 0.00 0.00 57 1009.6
20260504013622 13 166 0.0 0.0 0.00 0.00 0.00 58 1009.6
20260504013119 13 167 0.0 0.0 0.00 0.00 0.00 55 1009.4
20260504012616 13 170 0.0 0.0 0.00 0.00 0.00 55 1009.4
20260504012114 13 161 0.0 0.0 0.00 0.00 0.00 57 1009.3
20260504011610 13 158 0.0 0.0 0.00 0.00 0.00 56 1009.6
20260504011107 13 161 0.0 0.0 0.00 0.00 0.00 55 1009.5
20260504010602 13 161 0.0 0.0 0.00 0.00 0.00 55 1009.4